COSMOS 2379

导读

COSMOS 2379是独联体(CIS)于2001年8月24日8时发射的“宇宙”系列军用卫星,延续了苏联/俄罗斯以“COSMOS”命名军事航天任务的传统。该卫星隶属于俄罗斯航天军事体系,服役以来承担着空间侦察、导弹预警或空间环境监测类战略任务,长期在轨运行,是独联体时期天基战略侦察预警体系的重要组成部分,为航天军事应用积累了丰富的在轨运行数据。

基本信息
目录编号:
26892
目录名称:
COSMOS 2379
国际标识:
2001-037A
轨道中心:
EARTH
卫星名称:
COSMOS 2379
卫星全名:
--
卫星状态:
在轨 (已飞行9152 天)
发射日期:
2001-08-24 UTC
国别 :
俄罗斯(独联体) (CIS)
星等 :
--
该卫星已列入 空间交会检测服务 Space Conjunction Data Service (SCDS) ,当前飞行风险评估等级: 无高风险
轨道信息
数据来源 国际轨道数据 AOE轨道数据
星历时间 2026-09-14T01:52:35+0800
10小时前
查看轨道信息
2026-09-13T01:00:00+0800
1天前
查看轨道信息
半长轴 42176.17km 42176.114km
偏心率 0.0006557 0.0006227
轨道倾角 13.338° 13.335°
近地点辐角 238.893° 237.185°
升交点赤经 13.613° 13.621°
平近点角 135.226° 122.917°
近地点 35770.378km 35771.713km
远地点 35825.688km 35824.241km
周期 1436.681分钟 1436.678分钟
每日圈数 1.00231 1.002312
详细信息
使用方式:
暂无
2D轨道图
3D轨道图
轨道高度分析图
轨道倾角分析图
轨道综合分析图
查看轨道综合分析图
与全量物体交会距离演化趋势 订阅飞行安全评估服务
与全量物体交会风险概率演化趋势 订阅飞行安全评估服务